This is the latest recevied weather packets stored in our database for station/object KP4FJC. If no packets are shown the sender has not sent any weather packets the latest 10 day(s).
| Time | Temp. | Humidity | Pressure | Rain* | Wind** | Luminosity | Snow |
|---|---|---|---|---|---|---|---|
| 1777679403 | 25° C | 96% | 1015.7 hPa | 0 mm | - | 0 W/m² | - |
| 1777679099 | 25° C | 96% | 1015.6 hPa | 0 mm | - | 0 W/m² | - |
| 1777678798 | 25° C | 96% | 1015.5 hPa | 1.78 mm | - | 0 W/m² | - |
| 1777678495 | 25° C | 97% | 1015.4 hPa | 3.05 mm | - | 0 W/m² | - |
| 1777678190 | 24.44° C | 97% | 1015.3 hPa | 18.54 mm | - | 0 W/m² | - |
| 1777677888 | 25° C | 97% | 1015.5 hPa | 29.46 mm | - | 0 W/m² | - |
| 1777677585 | 25° C | 97% | 1015.3 hPa | 19.81 mm | - | 0 W/m² | - |
| 1777677284 | 25° C | 96% | 1015.2 hPa | 18.03 mm | - | 0 W/m² | - |
| 1777676981 | 25° C | 96% | 1015.4 hPa | 25.91 mm | - | 0 W/m² | - |
| 1777676680 | 25° C | 95% | 1015.2 hPa | 19.81 mm | - | 0 W/m² | - |
| 1777676377 | 25.56° C | 95% | 1015.1 hPa | 4.32 mm | - | 0 W/m² | - |
| 1777676075 | 25.56° C | 95% | 1015.3 hPa | 1.78 mm | - | 0 W/m² | - |
| 1777675770 | 25.56° C | 96% | 1015.2 hPa | 1.78 mm | - | 0 W/m² | - |
| 1777675468 | 25.56° C | 96% | 1014.9 hPa | 0 mm | - | 1 W/m² | - |
| 1777675165 | 25.56° C | 95% | 1014.9 hPa | 0 mm | - | 1 W/m² | - |
| 1777674861 | 25.56° C | 95% | 1014.9 hPa | 1.78 mm | - | 2 W/m² | - |
| 1777674557 | 25.56° C | 96% | 1014.8 hPa | 1.78 mm | - | 4 W/m² | - |
| 1777674255 | 25.56° C | 96% | 1014.6 hPa | 0 mm | - | 7 W/m² | - |
| 1777673951 | 25.56° C | 95% | 1014.9 hPa | 1.27 mm | - | 9 W/m² | - |
| 1777673648 | 25.56° C | 95% | 1014.7 hPa | 6.1 mm | - | 9 W/m² | - |
| 1777673346 | 25.56° C | 95% | 1014.8 hPa | 7.11 mm | - | 15 W/m² | - |
| 1777673043 | 26.11° C | 94% | 1014.8 hPa | 1.27 mm | - | 19 W/m² | - |
| 1777672739 | 26.11° C | 95% | 1014.7 hPa | 0 mm | - | 17 W/m² | - |
| 1777672435 | 26.11° C | 95% | 1014.7 hPa | 0 mm | - | 24 W/m² | - |
| 1777672131 | 26.11° C | 95% | 1014.3 hPa | 0 mm | - | 39 W/m² | - |
* Rain latest hour (hover to see other rain measurements)
** Current wind speed in m/s (hover to see current wind gust speed)